Regional Weather Roundup
Issued by NWS

Home | Current Version | Previous Version | Text Only | Print | Product List | Glossary Off
Versions: 1 2 3 4 5 6 7 8 9 10 11 12 13 14 15 16 17 18 19 20 21 22 23 24 25 26 27 28 29 30 31 32 33 34 35 36 37 38 39 40 41 42 43 44 45 46 47 48 49 50

000
ASUS43 KLOT 202000
RWRIL

ILLINOIS REGIONAL WEATHER ROUNDUP
NATIONAL WEATHER SERVICE CHICAGO/ROMEOVILLE IL
300 PM CDT SUN APR 20 2014

NOTE: "FAIR" INDICATES FEW OR NO CLOUDS BELOW 12,000 FEET WITH NO
SIGNIFICANT WEATHER AND/OR OBSTRUCTIONS TO VISIBILITY.

* THESE STATIONS ARE NOT UNDER NWS QUALITY CONTROL. THEY ALSO MAY NOT
  REPORT WEATHER SUCH AS PRECIPITATION OR FOG.

ILZ001-002-007-009-015-016-024-202100-
NORTHWEST ILLINOIS

CITY           SKY/WX    TMP DP  RH WIND       PRES   REMARKS
MOLINE         SUNNY     82  44  26 SW14G24   30.04F HX  80
STERLING*      SUNNY     81  43  26 SW8       30.06F
$$

ILZ003-004-008-010-011-017-018-202100-
NORTH CENTRAL ILLINOIS

CITY           SKY/WX    TMP DP  RH WIND       PRES   REMARKS
ROCKFORD       MOSUNNY   80  41  24 SW12G21   30.08F
$$

ILZ005-006-012>014-019>023-202100-
NORTHEAST ILLINOIS

CITY           SKY/WX    TMP DP  RH WIND       PRES   REMARKS
CHICAGO-OHARE  PTSUNNY   77  40  26 SW10      30.10F
CHICAGO-MIDWAY PTSUNNY   77  40  26 SW12      30.11F
AURORA         MOSUNNY   78  41  26 S15G22    30.10F
WAUKEGAN       MOSUNNY   67  39  35 SE13      30.10F
DUPAGE AIRPORT MOSUNNY   78  41  26 S12       30.10F
WHEELING       MOSUNNY   76  41  28 SW9       30.11F
NORTHERLY ISL    N/A     60  42  51 SE6         N/A
$$

LMZ740>746-202100-
SOUTHERN LAKE MICHIGAN

STATION/POSITION SKY/WX   TEMP    WIND        PRES    VSBY  WAVE
                          AIR SEA DIR/SP/G                  HT/PER
                          (F)     (DEG/KT/KT) (MB)    (MI)  (FT/S)
WAUKEGAN HARBOR            52     190/  9/ 15 1021.0S
HARRISON CRIB              64     130/ 14/ 16   N/A
BURNHAM HARBOR             61     140/  3/ 12   N/A
CALUMET HARBOR             73     170/  5/ 17 1020.8F
MICHIGAN CITY              67     300/  6/  7   N/A
$$

ILZ025>027-034>036-040-047-049-050-058-095>099-202100-
WEST-CENTRAL ILLINOIS

CITY           SKY/WX    TMP DP  RH WIND       PRES   REMARKS
QUINCY         MOSUNNY   80  49  33 S8G18     30.07F
$$

ILZ028>032-037-038-041>044-048-051>054-059>061-202100-
CENTRAL ILLINOIS

CITY           SKY/WX    TMP DP  RH WIND       PRES   REMARKS
DECATUR        SUNNY     77  42  28 SW9       30.13F
PEORIA         SUNNY     80  43  26 SW7G17    30.08F
SPRINGFIELD    SUNNY     81  40  23 S10       30.11F
TAYLORVILLE    NOT AVBL
$$

ILZ033-039-045-046-055>057-062-063-202100-
EAST-CENTRAL ILLINOIS

CITY           SKY/WX    TMP DP  RH WIND       PRES   REMARKS
CHAMPAIGN      SUNNY     78  38  23 S10G20    30.14F
MATTOON        MOSUNNY   73  44  35 S8        30.15F
$$

ILZ079-100>102-202100-
SOUTHWEST ILLINOIS

CITY           SKY/WX    TMP DP  RH WIND       PRES   REMARKS
BELLEVILLE     SUNNY     78  44  28 VRB7G17   30.11F
CAHOKIA*       SUNNY     80  45  28 SE10      30.10F
$$

ILZ064>066-069>071-074>076-080>082-084>086-088>090-092>094-202100-
SOUTH-CENTRAL ILLINOIS

CITY           SKY/WX    TMP DP  RH WIND       PRES   REMARKS
CARBONDALE     SUNNY     77  43  29 VRB6      30.13F
MARION         PTSUNNY   77  41  27 S7        30.16F
MT. VERNON     SUNNY     77  45  31 W3        30.16F
$$

ILZ067-068-072-073-078-083-087-091-202100-
SOUTHEAST ILLINOIS

CITY           SKY/WX    TMP DP  RH WIND       PRES   REMARKS
$$

ABBREVIATIONS USED IN REMARKS
   TC - TEMPERATURE IN CELSIUS
  WCI - WIND CHILL INDEX
   HX - HEAT INDEX
  VSB - VISIBILITY
$$




USA.gov is the U.S. government's official web portal to all federal, state and local government web resources and services.